,,,PA_Meas_PMT16A,,PR_Meas_QMR101_102,,RH_Meas_QMH101,,SR_Meas_QMS101,,TA_Meas_QMH101,,GenWind,,GenWind,
date,time,status,PA,status,PR,status,RH,status,SR,status,TA,status,DirAvg,status,SpdAvg,
2009-03-27, 00:00:04,VALID,1006.07,VALID,0,VALID,84.4746,VALID,0,VALID,25.5707,VALID,348,VALID,1.23945,
2009-03-27, 00:01:04,VALID,1006.06,VALID,0,VALID,84.5356,VALID,0,VALID,25.5513,VALID,347,VALID,1.33242,
2009-03-27, 00:02:04,VALID,1006.07,VALID,0,VALID,84.6348,VALID,0,VALID,25.5532,VALID,336,VALID,0.874219,
2009-03-27, 00:03:04,VALID,1006.06,VALID,0,VALID,84.6577,VALID,0,VALID,25.5318,VALID,357,VALID,1.06602,
2009-03-27, 00:04:04,VALID,1006.03,VALID,0,VALID,84.7797,VALID,0,VALID,25.5337,VALID,347,VALID,0.671484,
2009-03-27, 00:05:04,VALID,1005.99,VALID,0,VALID,84.9476,VALID,0.100563,VALID,25.5142,VALID,325,VALID,0.141406,
2009-03-27, 00:06:04,VALID,1005.99,VALID,0,VALID,84.9781,VALID,0,VALID,25.4734,VALID,325,VALID,0.666016,
2009-03-27, 00:07:04,VALID,1005.98,VALID,0,VALID,85.0391,VALID,0,VALID,25.4948,VALID,346,VALID,1.18203,
2009-03-27, 00:08:04,VALID,1005.99,VALID,0,VALID,85.1536,VALID,0,VALID,25.4539,VALID,359,VALID,0.678125,
2009-03-27, 00:09:04,VALID,1005.96,VALID,0,VALID,85.2604,VALID,0,VALID,25.4558,VALID,317,VALID,0.569141,
2009-03-27, 00:10:04,VALID,1005.96,VALID,0,VALID,85.3519,VALID,0,VALID,25.4363,VALID,49,VALID,0.441016,
2009-03-27, 00:11:04,VALID,1005.92,VALID,0,VALID,85.3748,VALID,0,VALID,25.4149,VALID,310,VALID,0.21875,
2009-03-27, 00:12:04,VALID,1005.91,VALID,0,VALID,85.5198,VALID,0,VALID,25.3974,VALID,324,VALID,0.270312,
2009-03-27, 00:13:04,VALID,1005.87,VALID,0,VALID,85.596,VALID,0.100563,VALID,25.376,VALID,326,VALID,0.381641,
2009-03-27, 00:14:04,VALID,1005.85,VALID,0,VALID,85.6113,VALID,0,VALID,25.3974,VALID,347,VALID,0.53125,
2009-03-27, 00:15:04,VALID,1005.85,VALID,0,VALID,85.68,VALID,0,VALID,25.3565,VALID,347,VALID,0.416406,
2009-03-27, 00:16:04,VALID,1005.87,VALID,0,VALID,85.7944,VALID,0,VALID,25.3779,VALID,330,VALID,0.628125,
2009-03-27, 00:17:04,VALID,1005.87,VALID,0,VALID,85.8096,VALID,0,VALID,25.337,VALID,319,VALID,0.650781,
2009-03-27, 00:18:04,VALID,1005.85,VALID,0,VALID,85.802,VALID,0,VALID,25.3565,VALID,289,VALID,0.220703,
2009-03-27, 00:19:04,VALID,1005.86,VALID,0,VALID,85.7486,VALID,0,VALID,25.3779,VALID,16,VALID,0.814844,
2009-03-27, 00:20:04,VALID,1005.83,VALID,0,VALID,85.7105,VALID,0,VALID,25.3565,VALID,357,VALID,0.959766,
2009-03-27, 00:21:04,VALID,1005.83,VALID,0,VALID,85.6876,VALID,0,VALID,25.3565,VALID,339,VALID,0.992188,
2009-03-27, 00:22:04,VALID,1005.86,VALID,0,VALID,85.7334,VALID,0,VALID,25.376,VALID,5,VALID,0.337109,
2009-03-27, 00:23:04,VALID,1005.86,VALID,0,VALID,85.741,VALID,0,VALID,25.3565,VALID,11,VALID,0.1875,
2009-03-27, 00:24:04,VALID,1005.88,VALID,0,VALID,85.7868,VALID,0,VALID,25.3779,VALID,323,VALID,0.314063,
2009-03-27, 00:25:04,VALID,1005.9,VALID,0,VALID,85.7334,VALID,0,VALID,25.3779,VALID,1,VALID,0.739844,
2009-03-27, 00:26:04,VALID,1005.89,VALID,0,VALID,85.6952,VALID,0,VALID,25.3779,VALID,308,VALID,0.564844,
2009-03-27, 00:27:04,VALID,1005.91,VALID,0,VALID,85.7486,VALID,0.100563,VALID,25.3565,VALID,287,VALID,0.394141,
2009-03-27, 00:28:04,VALID,1005.9,VALID,0,VALID,85.6952,VALID,0,VALID,25.3565,VALID,342,VALID,0.342578,
2009-03-27, 00:29:04,VALID,1005.91,VALID,0,VALID,85.6723,VALID,0,VALID,25.3565,VALID,322,VALID,0.480078,
2009-03-27, 00:30:04,VALID,1005.9,VALID,0,VALID,85.7028,VALID,0,VALID,25.376,VALID,303,VALID,0.385156,
2009-03-27, 00:31:04,VALID,1005.89,VALID,0,VALID,85.6494,VALID,0,VALID,25.3565,VALID,299,VALID,0.685938,
2009-03-27, 00:32:04,VALID,1005.86,VALID,0,VALID,85.6876,VALID,0,VALID,25.3974,VALID,283,VALID,0.362891,
2009-03-27, 00:33:04,VALID,1005.88,VALID,0,VALID,85.6723,VALID,0,VALID,25.3779,VALID,285,VALID,1.1625,
2009-03-27, 00:34:04,VALID,1005.89,VALID,0,VALID,85.6952,VALID,0,VALID,25.3779,VALID,279,VALID,0.483203,
2009-03-27, 00:35:04,VALID,1005.87,VALID,0,VALID,85.7181,VALID,0,VALID,25.3974,VALID,273,VALID,0.657812,
2009-03-27, 00:36:04,VALID,1005.83,VALID,0,VALID,85.7639,VALID,0.100563,VALID,25.376,VALID,337,VALID,0.261328,
2009-03-27, 00:37:04,VALID,1005.85,VALID,0,VALID,85.8478,VALID,0,VALID,25.3779,VALID,360,VALID,0.58125,
2009-03-27, 00:38:04,VALID,1005.83,VALID,0,VALID,85.9012,VALID,0,VALID,25.3565,VALID,301,VALID,0.275391,
2009-03-27, 00:39:04,VALID,1005.79,VALID,0,VALID,85.9241,VALID,0,VALID,25.337,VALID,279,VALID,0.430078,
2009-03-27, 00:40:04,VALID,1005.77,VALID,0,VALID,85.9775,VALID,0,VALID,25.337,VALID,303,VALID,0.355469,
2009-03-27, 00:41:04,VALID,1005.78,VALID,0,VALID,85.8936,VALID,0,VALID,25.337,VALID,288,VALID,0.907422,
2009-03-27, 00:42:04,VALID,1005.79,VALID,0,VALID,85.8936,VALID,0,VALID,25.337,VALID,283,VALID,1.01719,
2009-03-27, 00:43:04,VALID,1005.78,VALID,0,VALID,85.8631,VALID,0,VALID,25.3584,VALID,265,VALID,0.404297,
2009-03-27, 00:44:04,VALID,1005.78,VALID,0,VALID,85.8096,VALID,0,VALID,25.3565,VALID,312,VALID,0.838672,
2009-03-27, 00:45:04,VALID,1005.77,VALID,0,VALID,85.7562,VALID,0,VALID,25.3955,VALID,345,VALID,0.463672,
2009-03-27, 00:46:04,VALID,1005.74,VALID,0,VALID,85.7028,VALID,0,VALID,25.4149,VALID,280,VALID,0.219922,
2009-03-27, 00:47:04,VALID,1005.72,VALID,0,VALID,85.6723,VALID,0,VALID,25.3955,VALID,292,VALID,0.521094,
2009-03-27, 00:48:04,VALID,1005.74,VALID,0,VALID,85.6876,VALID,0,VALID,25.4149,VALID,282,VALID,0.259375,
2009-03-27, 00:49:04,VALID,1005.71,VALID,0,VALID,85.6876,VALID,0,VALID,25.4169,VALID,315,VALID,0.854688,
2009-03-27, 00:50:04,VALID,1005.71,VALID,0,VALID,85.7105,VALID,0,VALID,25.4169,VALID,289,VALID,0.255859,
2009-03-27, 00:51:04,VALID,1005.67,VALID,0,VALID,85.68,VALID,0,VALID,25.3955,VALID,291,VALID,0.258594,
2009-03-27, 00:52:04,VALID,1005.64,VALID,0,VALID,85.7105,VALID,0,VALID,25.4149,VALID,330,VALID,0.388672,
2009-03-27, 00:53:04,VALID,1005.66,VALID,0,VALID,85.7639,VALID,0,VALID,25.4169,VALID,332,VALID,0.43125,
2009-03-27, 00:54:04,VALID,1005.65,VALID,0,VALID,85.8478,VALID,0,VALID,25.4169,VALID,316,VALID,0.942187,
2009-03-27, 00:55:04,VALID,1005.66,VALID,0,VALID,85.8096,VALID,0,VALID,25.3955,VALID,318,VALID,0.227344,
2009-03-27, 00:56:04,VALID,1005.66,VALID,0,VALID,85.8707,VALID,0,VALID,25.3955,VALID,302,VALID,0.323047,
2009-03-27, 00:57:04,VALID,1005.66,VALID,0,VALID,85.9012,VALID,0,VALID,25.3955,VALID,295,VALID,0.198047,
2009-03-27, 00:58:04,VALID,1005.66,VALID,0,VALID,85.9699,VALID,0,VALID,25.376,VALID,275,VALID,0.39375,
2009-03-27, 00:59:04,VALID,1005.66,VALID,0,VALID,85.9165,VALID,0,VALID,25.3955,VALID,301,VALID,0.293359,
2009-03-27, 01:00:04,VALID,1005.64,VALID,0,VALID,85.9241,VALID,0,VALID,25.4149,VALID,301,VALID,0.565234,
2009-03-27, 01:01:04,VALID,1005.63,VALID,0,VALID,85.9393,VALID,0,VALID,25.4363,VALID,288,VALID,0.905078,
2009-03-27, 01:02:04,VALID,1005.59,VALID,0,VALID,85.8631,VALID,0,VALID,25.4558,VALID,315,VALID,0.3,
2009-03-27, 01:03:04,VALID,1005.57,VALID,0,VALID,85.9393,VALID,0,VALID,25.4753,VALID,284,VALID,0.749609,
2009-03-27, 01:04:04,VALID,1005.56,VALID,0,VALID,85.7868,VALID,0,VALID,25.4539,VALID,307,VALID,0.452344,
2009-03-27, 01:05:04,VALID,1005.52,VALID,0,VALID,85.7257,VALID,0,VALID,25.4753,VALID,291,VALID,1.06172,
2009-03-27, 01:06:04,VALID,1005.51,VALID,0,VALID,85.6647,VALID,0,VALID,25.4948,VALID,278,VALID,0.300391,
2009-03-27, 01:07:04,VALID,1005.49,VALID,0,VALID,85.7028,VALID,0,VALID,25.4734,VALID,348,VALID,0.4875,
2009-03-27, 01:08:04,VALID,1005.48,VALID,0,VALID,85.8402,VALID,0,VALID,25.4753,VALID,343,VALID,0.521094,
2009-03-27, 01:09:04,VALID,1005.45,VALID,0,VALID,85.9088,VALID,0,VALID,25.4734,VALID,305,VALID,0.207422,
2009-03-27, 01:10:04,VALID,1005.41,VALID,0,VALID,85.9775,VALID,0,VALID,25.4753,VALID,313,VALID,0.336719,
2009-03-27, 01:11:04,VALID,1005.38,VALID,0,VALID,85.9927,VALID,0,VALID,25.4558,VALID,359,VALID,0.544141,
2009-03-27, 01:12:04,VALID,1005.34,VALID,0,VALID,86.008,VALID,0,VALID,25.4558,VALID,1,VALID,0.977344,
2009-03-27, 01:13:04,VALID,1005.32,VALID,0,VALID,86.0614,VALID,0,VALID,25.3955,VALID,348,VALID,0.956641,
2009-03-27, 01:14:04,VALID,1005.26,VALID,0,VALID,86.1758,VALID,0,VALID,25.3955,VALID,356,VALID,0.078125,
2009-03-27, 01:15:04,VALID,1005.25,VALID,0,VALID,86.2979,VALID,0,VALID,25.3565,VALID,352,VALID,0.179297,
2009-03-27, 01:16:04,VALID,1005.21,VALID,0,VALID,86.3513,VALID,0,VALID,25.3565,VALID,345,VALID,0.145313,
2009-03-27, 01:17:04,VALID,1005.19,VALID,0,VALID,86.42,VALID,0,VALID,25.337,VALID,333,VALID,0.942578,
2009-03-27, 01:18:04,VALID,1005.14,VALID,0,VALID,86.5115,VALID,0,VALID,25.2981,VALID,284,VALID,0.162891,
2009-03-27, 01:19:04,VALID,1005.14,VALID,0,VALID,86.5649,VALID,0,VALID,25.3176,VALID,4,VALID,0.598437,
2009-03-27, 01:20:04,VALID,1005.13,VALID,0,VALID,86.5954,VALID,0,VALID,25.2981,VALID,1,VALID,0.065625,
2009-03-27, 01:21:04,VALID,1005.09,VALID,0,VALID,86.687,VALID,0,VALID,25.2786,VALID,355,VALID,0.476172,
2009-03-27, 01:22:04,VALID,1005.08,VALID,0,VALID,86.7327,VALID,0,VALID,25.3,VALID,350,VALID,0.553906,
2009-03-27, 01:23:04,VALID,1005.06,VALID,0,VALID,86.7785,VALID,0,VALID,25.2592,VALID,4,VALID,0.211719,
2009-03-27, 01:24:04,VALID,1005.05,VALID,0,VALID,86.8167,VALID,0,VALID,25.2592,VALID,342,VALID,0.287109,
2009-03-27, 01:25:04,VALID,1005.02,VALID,0,VALID,86.8167,VALID,0,VALID,25.2592,VALID,288,VALID,0.171094,
2009-03-27, 01:26:04,VALID,1004.98,VALID,0,VALID,86.8395,VALID,0,VALID,25.2806,VALID,349,VALID,0.785937,
2009-03-27, 01:27:04,VALID,1004.95,VALID,0,VALID,86.8624,VALID,0,VALID,25.2397,VALID,347,VALID,0.480859,
2009-03-27, 01:28:04,VALID,1004.94,VALID,0,VALID,86.9235,VALID,0,VALID,25.2825,VALID,345,VALID,0.264062,
2009-03-27, 01:29:04,VALID,1004.91,VALID,0,VALID,86.9692,VALID,0,VALID,25.2416,VALID,345,VALID,0.102344,
2009-03-27, 01:30:04,VALID,1004.92,VALID,0,VALID,87.0913,VALID,0,VALID,25.2221,VALID,351,VALID,0.436719,
2009-03-27, 01:31:04,VALID,1004.89,VALID,0,VALID,87.0837,VALID,0,VALID,25.2007,VALID,351,VALID,0.0207031,
2009-03-27, 01:32:04,VALID,1004.86,VALID,0,VALID,87.1142,VALID,0,VALID,25.2027,VALID,351,VALID,0.0121094,
2009-03-27, 01:33:04,VALID,1004.88,VALID,0,VALID,87.1981,VALID,0,VALID,25.1618,VALID,351,VALID,0.00234375,
2009-03-27, 01:34:04,VALID,1004.85,VALID,0,VALID,87.3049,VALID,0,VALID,25.1442,VALID,326,VALID,0.332422,
2009-03-27, 01:35:04,VALID,1004.84,VALID,0,VALID,87.4651,VALID,0,VALID,25.1229,VALID,325,VALID,0.315234,
2009-03-27, 01:36:04,VALID,1004.83,VALID,0,VALID,87.488,VALID,0,VALID,25.1248,VALID,300,VALID,0.391016,
2009-03-27, 01:37:04,VALID,1004.85,VALID,0,VALID,87.5948,VALID,0,VALID,25.1248,VALID,297,VALID,0.46875,
2009-03-27, 01:38:04,VALID,1004.83,VALID,0,VALID,87.6101,VALID,0,VALID,25.1248,VALID,291,VALID,0.726172,
2009-03-27, 01:39:04,VALID,1004.78,VALID,0,VALID,87.5109,VALID,0,VALID,25.1423,VALID,284,VALID,0.803516,
2009-03-27, 01:40:04,VALID,1004.79,VALID,0,VALID,87.343,VALID,0,VALID,25.1813,VALID,285,VALID,0.319531,
2009-03-27, 01:41:04,VALID,1004.77,VALID,0,VALID,87.2591,VALID,0,VALID,25.2027,VALID,290,VALID,0.182812,
2009-03-27, 01:42:04,VALID,1004.72,VALID,0,VALID,87.2668,VALID,0,VALID,25.1618,VALID,292,VALID,0.100391,
2009-03-27, 01:43:04,VALID,1004.72,VALID,0,VALID,87.3278,VALID,0.100563,VALID,25.1813,VALID,290,VALID,0.39375,
2009-03-27, 01:44:04,VALID,1004.71,VALID,0,VALID,87.2744,VALID,0,VALID,25.1813,VALID,290,VALID,0.0542969,
2009-03-27, 01:45:04,VALID,1004.67,VALID,0,VALID,87.282,VALID,0.100563,VALID,25.1423,VALID,290,VALID,0,
2009-03-27, 01:46:04,VALID,1004.65,VALID,0,VALID,87.2973,VALID,0,VALID,25.1423,VALID,290,VALID,0,
2009-03-27, 01:47:04,VALID,1004.63,VALID,0,VALID,87.4422,VALID,0.100563,VALID,25.1229,VALID,290,VALID,0.0410156,
2009-03-27, 01:48:04,VALID,1004.58,VALID,0,VALID,87.6329,VALID,0,VALID,25.0839,VALID,290,VALID,0.0707031,
2009-03-27, 01:49:04,VALID,1004.59,VALID,0,VALID,87.7321,VALID,0,VALID,25.0644,VALID,290,VALID,0,
2009-03-27, 01:50:04,VALID,1004.57,VALID,0,VALID,87.8847,VALID,0.100563,VALID,25.0255,VALID,290,VALID,0,
2009-03-27, 01:51:04,VALID,1004.58,VALID,0,VALID,88.0831,VALID,0,VALID,25.006,VALID,290,VALID,0.492578,
2009-03-27, 01:52:04,VALID,1004.56,VALID,0,VALID,88.167,VALID,0.100563,VALID,25.006,VALID,289,VALID,0.0996094,
2009-03-27, 01:53:04,VALID,1004.56,VALID,0,VALID,88.3119,VALID,0,VALID,24.9866,VALID,289,VALID,0.100781,
2009-03-27, 01:54:04,VALID,1004.61,VALID,0,VALID,88.3882,VALID,0,VALID,24.9671,VALID,289,VALID,0,
2009-03-27, 01:55:04,VALID,1004.61,VALID,0,VALID,88.64,VALID,0,VALID,24.9671,VALID,284,VALID,0.546875,
2009-03-27, 01:56:04,VALID,1004.64,VALID,0,VALID,88.5637,VALID,0,VALID,24.9671,VALID,292,VALID,0.791797,
2009-03-27, 01:57:04,VALID,1004.65,VALID,0,VALID,88.4798,VALID,0,VALID,25.006,VALID,274,VALID,0.709375,
2009-03-27, 01:58:04,VALID,1004.63,VALID,0,VALID,88.2661,VALID,0,VALID,25.0663,VALID,292,VALID,0.389062,
2009-03-27, 01:59:04,VALID,1004.63,VALID,0,VALID,88.0296,VALID,0,VALID,25.1053,VALID,287,VALID,0.0898438,
2009-03-27, 02:00:04,VALID,1004.61,VALID,0,VALID,88.0068,VALID,0,VALID,25.0644,VALID,289,VALID,0.528906,
2009-03-27, 02:01:04,VALID,1004.63,VALID,0,VALID,87.9839,VALID,0,VALID,25.0858,VALID,289,VALID,0.111328,
2009-03-27, 02:02:04,VALID,1004.61,VALID,0,VALID,87.9686,VALID,0,VALID,25.0858,VALID,289,VALID,0,
2009-03-27, 02:03:04,VALID,1004.58,VALID,0,VALID,88.0296,VALID,0,VALID,25.045,VALID,292,VALID,0,
2009-03-27, 02:04:04,VALID,1004.57,VALID,0,VALID,88.0754,VALID,0,VALID,25.0469,VALID,292,VALID,0,
2009-03-27, 02:05:04,VALID,1004.55,VALID,0,VALID,88.2127,VALID,0.100563,VALID,25.0255,VALID,292,VALID,0,
2009-03-27, 02:06:04,VALID,1004.56,VALID,0,VALID,88.3348,VALID,0,VALID,24.9866,VALID,292,VALID,0,
2009-03-27, 02:07:04,VALID,1004.54,VALID,0,VALID,88.5789,VALID,0,VALID,24.9866,VALID,290,VALID,0.359766,
2009-03-27, 02:08:04,VALID,1004.54,VALID,0,VALID,88.6705,VALID,0,VALID,24.9866,VALID,282,VALID,0.298828,
2009-03-27, 02:09:04,VALID,1004.53,VALID,0,VALID,88.7468,VALID,0,VALID,25.006,VALID,296,VALID,0.400781,
2009-03-27, 02:10:04,VALID,1004.54,VALID,0,VALID,88.6552,VALID,0,VALID,25.0255,VALID,301,VALID,0.0761719,
2009-03-27, 02:11:04,VALID,1004.53,VALID,0,VALID,88.6628,VALID,0,VALID,25.0469,VALID,279,VALID,0.251563,
2009-03-27, 02:12:04,VALID,1004.56,VALID,0,VALID,88.6476,VALID,0,VALID,25.0255,VALID,282,VALID,0.976953,
2009-03-27, 02:13:04,VALID,1004.58,VALID,0,VALID,88.5255,VALID,0,VALID,25.045,VALID,281,VALID,0.464453,
2009-03-27, 02:14:04,VALID,1004.61,VALID,0,VALID,88.5179,VALID,0.100563,VALID,25.0644,VALID,276,VALID,0.644531,
2009-03-27, 02:15:04,VALID,1004.61,VALID,0,VALID,88.4187,VALID,0.100563,VALID,25.0858,VALID,289,VALID,0.623047,
2009-03-27, 02:16:04,VALID,1004.6,VALID,0,VALID,88.3195,VALID,0,VALID,25.0839,VALID,292,VALID,0.101953,
2009-03-27, 02:17:04,VALID,1004.6,VALID,0,VALID,88.3729,VALID,0.100563,VALID,25.1248,VALID,276,VALID,0.287109,
2009-03-27, 02:18:04,VALID,1004.59,VALID,0,VALID,88.289,VALID,0,VALID,25.1034,VALID,286,VALID,0.517578,
2009-03-27, 02:19:04,VALID,1004.6,VALID,0,VALID,88.2433,VALID,0,VALID,25.1229,VALID,284,VALID,0.290234,
2009-03-27, 02:20:04,VALID,1004.56,VALID,0,VALID,88.1975,VALID,0.100563,VALID,25.1034,VALID,284,VALID,0,
2009-03-27, 02:21:04,VALID,1004.56,VALID,0,VALID,88.2738,VALID,0.100563,VALID,25.1229,VALID,292,VALID,0.204297,
2009-03-27, 02:22:04,VALID,1004.55,VALID,0,VALID,88.3882,VALID,0.100563,VALID,25.1034,VALID,292,VALID,0.163672,
2009-03-27, 02:23:04,VALID,1004.55,VALID,0,VALID,88.3806,VALID,0,VALID,25.1248,VALID,292,VALID,0.158203,
2009-03-27, 02:24:04,VALID,1004.53,VALID,0,VALID,88.4111,VALID,0.100563,VALID,25.0839,VALID,294,VALID,0.059375,
2009-03-27, 02:25:04,VALID,1004.52,VALID,0,VALID,88.5789,VALID,0,VALID,25.0644,VALID,298,VALID,0.433203,
2009-03-27, 02:26:04,VALID,1004.53,VALID,0,VALID,88.6552,VALID,0,VALID,25.0644,VALID,274,VALID,0.212109,
2009-03-27, 02:27:04,VALID,1004.5,VALID,0,VALID,88.7162,VALID,0,VALID,25.1053,VALID,273,VALID,0.235938,
2009-03-27, 02:28:04,VALID,1004.48,VALID,0,VALID,88.7773,VALID,0,VALID,25.0644,VALID,296,VALID,0.660156,
2009-03-27, 02:29:04,VALID,1004.48,VALID,0,VALID,88.7468,VALID,0.100563,VALID,25.0644,VALID,294,VALID,0.00195313,
2009-03-27, 02:30:04,VALID,1004.49,VALID,0,VALID,88.8002,VALID,0.100563,VALID,25.0663,VALID,295,VALID,0.198047,
2009-03-27, 02:31:05,VALID,1004.48,VALID,0,VALID,88.8841,VALID,0.100563,VALID,25.0644,VALID,6,VALID,0.545313,
2009-03-27, 02:32:05,VALID,1004.48,VALID,0,VALID,88.9375,VALID,0,VALID,25.0644,VALID,345,VALID,0.767578,
2009-03-27, 02:33:05,VALID,1004.44,VALID,0,VALID,88.8459,VALID,0,VALID,25.0839,VALID,335,VALID,0.490234,
2009-03-27, 02:34:05,VALID,1004.48,VALID,0,VALID,88.8154,VALID,0.100563,VALID,25.1053,VALID,326,VALID,0.465234,
2009-03-27, 02:35:05,VALID,1004.5,VALID,0,VALID,88.7544,VALID,0,VALID,25.0839,VALID,328,VALID,0.343359,
2009-03-27, 02:36:05,VALID,1004.47,VALID,0,VALID,88.7086,VALID,0,VALID,25.1034,VALID,328,VALID,0.0332031,
2009-03-27, 02:37:05,VALID,1004.5,VALID,0,VALID,88.7468,VALID,0.100563,VALID,25.1034,VALID,260,VALID,0.907812,
2009-03-27, 02:38:05,VALID,1004.5,VALID,0,VALID,88.6323,VALID,0.100563,VALID,25.1034,VALID,284,VALID,0.748047,
2009-03-27, 02:39:05,VALID,1004.51,VALID,0,VALID,88.3806,VALID,0,VALID,25.1229,VALID,297,VALID,0.471484,
2009-03-27, 02:40:05,VALID,1004.52,VALID,0,VALID,88.228,VALID,0,VALID,25.1832,VALID,270,VALID,0.801953,
2009-03-27, 02:41:05,VALID,1004.57,VALID,0,VALID,88.0144,VALID,0,VALID,25.2221,VALID,290,VALID,0.764844,
2009-03-27, 02:42:05,VALID,1004.54,VALID,0,VALID,87.8771,VALID,0,VALID,25.2397,VALID,290,VALID,0.687109,
2009-03-27, 02:43:05,VALID,1004.58,VALID,0,VALID,87.8008,VALID,0,VALID,25.2221,VALID,292,VALID,0.976172,
2009-03-27, 02:44:05,VALID,1004.6,VALID,0,VALID,87.7855,VALID,0,VALID,25.2202,VALID,300,VALID,0.965625,
2009-03-27, 02:45:05,VALID,1004.62,VALID,0,VALID,87.7626,VALID,0,VALID,25.2007,VALID,298,VALID,1.14883,
2009-03-27, 02:46:05,VALID,1004.61,VALID,0,VALID,87.8084,VALID,0,VALID,25.2416,VALID,284,VALID,1.05703,
2009-03-27, 02:47:05,VALID,1004.64,VALID,0,VALID,87.8084,VALID,0,VALID,25.2007,VALID,290,VALID,0.922266,
2009-03-27, 02:48:05,VALID,1004.63,VALID,0,VALID,87.8618,VALID,0,VALID,25.2027,VALID,289,VALID,0.646484,
2009-03-27, 02:49:05,VALID,1004.63,VALID,0,VALID,87.9152,VALID,0,VALID,25.1832,VALID,287,VALID,1.00078,
2009-03-27, 02:50:05,VALID,1004.58,VALID,0,VALID,87.8771,VALID,0,VALID,25.1618,VALID,282,VALID,0.791797,
2009-03-27, 02:51:05,VALID,1004.57,VALID,0,VALID,87.9076,VALID,0.100563,VALID,25.1423,VALID,280,VALID,0.114453,
2009-03-27, 02:52:05,VALID,1004.54,VALID,0,VALID,87.9991,VALID,0,VALID,25.1229,VALID,282,VALID,0.442187,
2009-03-27, 02:53:05,VALID,1004.55,VALID,0,VALID,88.0907,VALID,0,VALID,25.1248,VALID,298,VALID,0.477344,
2009-03-27, 02:54:05,VALID,1004.51,VALID,0,VALID,88.1822,VALID,0,VALID,25.0644,VALID,306,VALID,0.239453,
2009-03-27, 02:55:05,VALID,1004.55,VALID,0,VALID,88.2661,VALID,0,VALID,25.0663,VALID,309,VALID,0.422656,
2009-03-27, 02:56:05,VALID,1004.56,VALID,0,VALID,88.2738,VALID,0,VALID,25.0663,VALID,301,VALID,0.0546875,
2009-03-27, 02:57:05,VALID,1004.54,VALID,0,VALID,88.3195,VALID,0,VALID,25.0079,VALID,296,VALID,0.0148437,
2009-03-27, 02:58:05,VALID,1004.58,VALID,0,VALID,88.4035,VALID,0,VALID,24.9671,VALID,297,VALID,0,
2009-03-27, 02:59:05,VALID,1004.58,VALID,0,VALID,88.5179,VALID,0,VALID,24.9476,VALID,297,VALID,0.216016,
2009-03-27, 03:00:05,VALID,1004.59,VALID,0,VALID,88.6552,VALID,0,VALID,24.9495,VALID,297,VALID,0.333203,
2009-03-27, 03:01:05,VALID,1004.63,VALID,0,VALID,88.6857,VALID,0,VALID,24.9087,VALID,294,VALID,0.169141,
2009-03-27, 03:02:05,VALID,1004.63,VALID,0,VALID,88.7391,VALID,0,VALID,24.9106,VALID,292,VALID,0.448828,
2009-03-27, 03:03:05,VALID,1004.61,VALID,0,VALID,88.7162,VALID,0,VALID,24.8892,VALID,281,VALID,0.233594,
2009-03-27, 03:04:05,VALID,1004.64,VALID,0,VALID,88.7468,VALID,0,VALID,24.8911,VALID,293,VALID,0.271484,
2009-03-27, 03:05:05,VALID,1004.61,VALID,0,VALID,88.701,VALID,0,VALID,24.8892,VALID,278,VALID,0.503906,
2009-03-27, 03:06:05,VALID,1004.62,VALID,0,VALID,88.556,VALID,0,VALID,24.93,VALID,281,VALID,0.197266,
2009-03-27, 03:07:05,VALID,1004.56,VALID,0,VALID,88.5255,VALID,0,VALID,24.9087,VALID,297,VALID,0.158594,
2009-03-27, 03:08:05,VALID,1004.55,VALID,0,VALID,88.4645,VALID,0,VALID,24.93,VALID,297,VALID,0.00625,
2009-03-27, 03:09:05,VALID,1004.52,VALID,0,VALID,88.4416,VALID,0,VALID,24.9106,VALID,297,VALID,0.00195313,
2009-03-27, 03:10:05,VALID,1004.54,VALID,0,VALID,88.5332,VALID,0,VALID,24.8697,VALID,297,VALID,0.181641,
2009-03-27, 03:11:05,VALID,1004.5,VALID,0,VALID,88.5637,VALID,0,VALID,24.8503,VALID,293,VALID,0.426172,
2009-03-27, 03:12:05,VALID,1004.51,VALID,0,VALID,88.5713,VALID,0,VALID,24.8522,VALID,293,VALID,0.201172,
2009-03-27, 03:13:05,VALID,1004.52,VALID,0,VALID,88.6628,VALID,0,VALID,24.8503,VALID,297,VALID,0.117578,
2009-03-27, 03:14:05,VALID,1004.46,VALID,0,VALID,88.701,VALID,0.100563,VALID,24.8503,VALID,297,VALID,0.30625,
2009-03-27, 03:15:05,VALID,1004.47,VALID,0,VALID,88.7468,VALID,0,VALID,24.8308,VALID,297,VALID,0.0894531,
2009-03-27, 03:16:05,VALID,1004.43,VALID,0,VALID,88.7391,VALID,0,VALID,24.8113,VALID,297,VALID,0.139062,
2009-03-27, 03:17:05,VALID,1004.42,VALID,0,VALID,88.7849,VALID,0,VALID,24.8132,VALID,297,VALID,0,
2009-03-27, 03:18:05,VALID,1004.4,VALID,0,VALID,88.7849,VALID,0,VALID,24.7919,VALID,295,VALID,0.10625,
2009-03-27, 03:19:05,VALID,1004.39,VALID,0,VALID,88.8536,VALID,0,VALID,24.7919,VALID,295,VALID,0,
2009-03-27, 03:20:05,VALID,1004.38,VALID,0,VALID,88.8383,VALID,0,VALID,24.7919,VALID,345,VALID,0.39375,
2009-03-27, 03:21:05,VALID,1004.4,VALID,0,VALID,88.8231,VALID,0,VALID,24.8327,VALID,345,VALID,0.269922,
2009-03-27, 03:22:05,VALID,1004.41,VALID,0,VALID,88.7773,VALID,0,VALID,24.8132,VALID,341,VALID,0.224219,
2009-03-27, 03:23:05,VALID,1004.44,VALID,0,VALID,88.7162,VALID,0,VALID,24.8132,VALID,331,VALID,0,
2009-03-27, 03:24:05,VALID,1004.46,VALID,0,VALID,88.7391,VALID,0,VALID,24.7937,VALID,331,VALID,0.0238281,
2009-03-27, 03:25:05,VALID,1004.5,VALID,0,VALID,88.7468,VALID,0,VALID,24.7937,VALID,331,VALID,0,
2009-03-27, 03:26:05,VALID,1004.48,VALID,0,VALID,88.8459,VALID,0,VALID,24.7529,VALID,331,VALID,0.35625,
2009-03-27, 03:27:05,VALID,1004.48,VALID,0,VALID,88.8536,VALID,0,VALID,24.7743,VALID,331,VALID,0.0375,
2009-03-27, 03:28:05,VALID,1004.52,VALID,0,VALID,88.8688,VALID,0,VALID,24.7353,VALID,331,VALID,0.138281,
2009-03-27, 03:29:05,VALID,1004.49,VALID,0,VALID,88.9451,VALID,0,VALID,24.7548,VALID,332,VALID,0.101563,
2009-03-27, 03:30:05,VALID,1004.45,VALID,0,VALID,88.9451,VALID,0,VALID,24.7353,VALID,332,VALID,0.157031,
2009-03-27, 03:31:05,VALID,1004.43,VALID,0,VALID,89.0138,VALID,0,VALID,24.714,VALID,332,VALID,0,
2009-03-27, 03:32:05,VALID,1004.43,VALID,0,VALID,89.0138,VALID,0,VALID,24.714,VALID,332,VALID,0.0183594,
2009-03-27, 03:33:05,VALID,1004.42,VALID,0,VALID,89.1358,VALID,0,VALID,24.6945,VALID,332,VALID,0.0878906,
2009-03-27, 03:34:05,VALID,1004.43,VALID,0,VALID,89.1511,VALID,0,VALID,24.7159,VALID,331,VALID,0,
2009-03-27, 03:35:05,VALID,1004.42,VALID,0,VALID,89.2655,VALID,0,VALID,24.6945,VALID,296,VALID,0.664063,
2009-03-27, 03:36:05,VALID,1004.42,VALID,0,VALID,89.2579,VALID,0,VALID,24.6945,VALID,287,VALID,0.297656,
2009-03-27, 03:37:05,VALID,1004.43,VALID,0,VALID,89.1816,VALID,0,VALID,24.7159,VALID,287,VALID,0.00625,
2009-03-27, 03:38:05,VALID,1004.44,VALID,0,VALID,89.2121,VALID,0,VALID,24.6964,VALID,286,VALID,0.298828,
2009-03-27, 03:39:05,VALID,1004.44,VALID,0,VALID,89.235,VALID,0,VALID,24.7159,VALID,278,VALID,0.563281,
2009-03-27, 03:40:05,VALID,1004.46,VALID,0,VALID,89.1435,VALID,0,VALID,24.7335,VALID,291,VALID,1.04453,
2009-03-27, 03:41:05,VALID,1004.43,VALID,0,VALID,88.8917,VALID,0.100563,VALID,24.7724,VALID,295,VALID,0.402734,
2009-03-27, 03:42:05,VALID,1004.42,VALID,0,VALID,88.7239,VALID,0,VALID,24.7724,VALID,291,VALID,0.295312,
2009-03-27, 03:43:05,VALID,1004.44,VALID,0,VALID,88.5866,VALID,0,VALID,24.7919,VALID,291,VALID,0.267969,